Location: G�migny
(47.9646°N, 1.6950°E)
Time: 10:23:39
(UTC+00:00)

STARLINK-42 - Pass Details

Date: 23 October 2019
Orbit: 548 x 551 km, 53.0° (Epoch: 18 November)

Event Time Altitude Azimuth Distance (km) Brightness Sun altitude
Rises 17:50:39 0° 286° (WNW) 2,719 8.6 -10.7°
Reaches altitude 10° 17:52:59 10° 293° (WNW) 1,826 7.3 -11.1°
Maximum altitude 17:56:56 41° 5° (N) 803 4.4 -11.7°
Enters shadow 17:59:42 18° 69° (ENE) 1,406 5.1 -12.2°
